Location: Bah�a Cartagena
(33.5431°S, 71.6111°W)
Time: 09:27:39
(UTC+00:00)

Daily predictions for brighter satellites

Satellite Brightness Start Highest point End
(mag) Time Altitude Azimuth Time Altitude Azimuth Time Altitude Azimuth
SL-24 R/B - RUBIN 2 3.9 22:03:08 10° NNW 22:08:26 75° ENE 22:13:10 10° SSE
COSMO-SKYMED 1 2.6 22:04:47 10° NNE 22:09:08 85° ESE 22:13:33 10° S
STARLINK-1024 3.7 22:05:41 10° NW 22:09:50 73° NE 22:14:01 10° SE
Cosmos 2219 Rocket 4.1 22:07:30 10° WNW 22:12:17 28° WSW 22:17:08 10° S
Cosmos 1707 Rocket 3.7 22:10:19 10° S 22:14:42 56° E 22:18:59 10° NNE
STARLINK-1035 3.7 22:10:36 10° NW 22:14:46 82° NE 22:18:58 10° SE
Lacrosse 5 rocket 1.9 22:11:53 10° NW 22:16:02 61° SW 22:20:28 10° SSE
SMAP 4.2 22:13:05 10° SE 22:16:54 24° E 22:20:40 10° NNE
H-2A R/B 3.3 22:15:17 10° SSE 22:18:59 38° E 22:22:38 10° NNE
STARLINK-1032 3.7 22:15:35 10° NW 22:19:45 89° SW 22:23:59 10° SE
SL-4 R/B 1.9 22:16:32 10° NNW 22:21:22 49° NE 22:23:26 10° SE
Meteor 1-10 Rocket 4.5 22:16:40 10° S 22:22:24 80° W 22:28:10 10° N
Sich 1 4.0 22:18:42 10° NNW 22:22:58 52° W 22:27:20 10° S
Cosmos 389 Rocket 4.2 22:22:51 10° SE 22:24:43 14° ESE 22:26:34 10° ENE
STARLINK-1011 3.7 22:20:35 10° NW 22:24:45 80° SW 22:28:58 10° SE
STARLINK-1037 3.7 22:20:40 10° NW 22:24:50 79° SW 22:29:03 10° SE
Milstar 3 4.4 22:18:00 10° W 22:26:12 60° N 22:41:28 10° ENE
Cosmos 2056 Rocket 3.6 22:21:50 10° S 22:27:05 57° ESE 22:32:10 10° NNE
Cosmos 1862 Rocket 4.2 22:25:09 10° SSE 22:29:21 36° E 22:33:30 10° NNE
STARLINK-1036 3.8 22:25:34 10° NW 22:29:43 72° SW 22:33:55 10° SE
STARLINK-1044 4.0 22:30:33 10° NW 22:34:41 64° SW 22:38:42 11° SE
H-2A R/B 4.4 22:32:30 10° SSW 22:35:59 28° WSW 22:39:21 10° NW
ATLAS 5 CENTAUR R/B 3.5 22:31:46 10° NW 22:38:46 51° SW 22:45:22 10° SSE
STARLINK-1047 4.1 22:35:34 10° WNW 22:39:41 57° SW 22:43:29 12° SE
Shenzhou-11 Module 3.9 22:39:03 10° SSW 22:40:21 13° S 22:40:51 12° SSE
Meteor 1-25 Rocket 4.4 22:36:10 10° NNE 22:41:32 51° E 22:46:57 10° SSE
NOAA 6 4.2 22:37:08 10° S 22:42:20 81° WSW 22:47:28 10° NNW
NOSS 2-2 (D) 4.4 22:36:40 10° SSW 22:44:03 69° ESE 22:49:18 10° NE
STARLINK-1378 4.5 22:44:33 10° SSW 22:47:58 28° SE 22:49:29 21° ESE
Helios 1A Rocket 3.6 22:46:15 14° SE 22:49:17 33° E 22:52:58 10° NNE
Radarsat Rocket 4.3 22:41:59 10° SSE 22:49:19 76° ENE 22:55:42 10° N
STARLINK-1059 4.5 22:45:38 10° WNW 22:49:40 46° SW 22:53:03 14° SSE
FALCON 9 DEB 3.0 22:47:41 10° SW 22:51:11 74° SE 22:54:39 10° NE
STARLINK-1379 4.4 22:48:02 10° SSW 22:51:30 29° SE 22:52:51 24° ESE
Okean O Rocket 1.7 22:47:07 10° S 22:51:37 82° WSW 22:56:04 10° NNW
STARLINK-1329 4.3 22:49:27 10° SSW 22:52:58 30° SE 22:54:15 24° ESE
CORIOLIS 4.3 22:49:49 10° SSE 22:55:10 51° E 23:00:25 10° N
Meteor 1-20 Rocket 4.2 22:50:14 10° N 22:55:56 73° E 23:01:48 10° SSE
STARLINK-29 4.4 22:53:02 10° WSW 22:56:10 40° NW 22:59:16 10° NNE
STARLINK-1062 4.5 22:52:36 10° NNW 22:56:22 34° NE 22:57:58 25° E
STARLINK-1362 4.2 22:52:58 10° SSW 22:56:34 32° SE 22:57:42 27° ESE
Cosmos 1420 Rocket 4.1 22:51:36 10° S 22:56:51 54° ESE 23:02:00 10° NNE
Cosmos 1461 3.3 22:53:05 10° SW 22:56:57 58° WNW 23:00:44 10° NNE
Cosmos 1452 Rocket 4.0 22:52:16 10° S 22:57:08 36° ESE 23:01:58 10° NE
Cosmos 1933 Rocket 3.4 22:54:49 10° N 22:59:09 74° E 23:03:35 10° S
Envisat 3.0 22:54:44 10° SSE 22:59:52 68° ENE 23:04:56 10° N
STARLINK-1373 4.1 22:56:32 10° SSW 23:00:10 34° SE 23:01:07 30° ESE
Cosmos 2237 Rocket 3.9 22:56:04 10° NW 23:01:03 31° WSW 23:06:04 10° S
STARLINK-1053 4.3 22:57:28 10° NNW 23:01:20 38° NE 23:02:45 29° E
STARLINK-1365 4.0 22:57:37 10° SSW 23:01:21 37° SE 23:02:26 31° ESE
STARLINK-1390 4.0 23:00:05 10° SSW 23:03:47 37° SE 23:04:36 33° ESE
Cosmos 1703 Rocket 4.3 23:00:38 10° SSE 23:04:32 29° ESE 23:08:22 10° NE
AQUARIUS 4.1 23:00:00 10° SSE 23:04:34 75° ENE 23:09:04 10° N
Cosmos 2100 Rocket 4.2 22:59:05 10° N 23:05:16 75° W 23:11:31 10° S
STARLINK-1061 4.1 23:02:20 10° NNW 23:06:16 43° NE 23:07:32 33° E
STARLINK-1065 4.1 23:02:48 10° NNW 23:06:45 44° NE 23:08:00 33° E
Meteor 1-14 Rocket 4.4 23:01:40 10° NNE 23:07:11 52° E 23:12:55 10° SSE
Cosmos 494 Rocket 4.4 23:02:56 10° N 23:07:41 40° ENE 23:09:47 27° SE
CZ-4B R/B 3.8 23:04:34 10° S 23:10:01 60° WSW 23:15:30 10° NNW
STARLINK-1067 4.0 23:07:14 10° NNW 23:11:14 48° NE 23:12:19 38° E
Cosmos 1048 Rocket 3.9 23:09:27 10° NNW 23:14:36 85° ENE 23:18:51 16° SSE
STARLINK-1058 3.8 23:12:08 10° NNW 23:16:12 54° NE 23:17:06 44° E
SL-16 R/B 2.6 23:13:36 10° NNW 23:19:15 65° WSW 23:24:50 11° SSE
STARLINK-1043 3.7 23:17:02 10° NNW 23:21:09 61° NE 23:21:52 51° E
ATLAS 2AS CENTAUR R/B 3.3 23:18:49 10° SSW 23:24:51 33° SE 23:25:33 33° ESE
Cosmos 2016 Rocket 4.1 23:21:12 10° N 23:27:27 81° W 23:33:54 10° S
Cosmos 1864 Rocket 4.4 23:22:50 10° N 23:28:59 85° E 23:35:16 10° S
Delta 142 4.4 23:26:33 10° WNW 23:30:31 42° N 23:31:56 32° NE
Meteosat 1 Rocket2 4.4 23:24:10 10° WNW 23:30:51 40° N 23:32:40 31° NE
Feng Yun 1-1 Rocket 4.1 23:26:15 14° SSE 23:31:01 83° ENE 23:36:33 10° NNW
STARLINK-1063 3.5 23:26:56 10° NW 23:31:06 78° NE 23:31:26 71° E
Cosmos 2278 Rocket 4.0 23:27:31 10° SW 23:32:32 33° WNW 23:37:31 10° NNW
Cosmos 2061 Rocket 4.2 23:27:39 10° NNW 23:33:55 71° W 23:40:11 10° S
STARLINK-1320 4.0 23:32:03 10° SW 23:34:17 41° WSW 23:34:17 41° WSW
STARLINK-1322 4.0 23:32:21 10° SW 23:34:34 40° WSW 23:34:34 40° WSW
STARLINK-1324 4.0 23:32:43 10° SW 23:34:56 40° WSW 23:34:56 40° WSW
STARLINK-1064 3.4 23:31:53 10° NW 23:36:03 87° NE 23:36:13 82° ESE
STARLINK-1294 4.1 23:33:06 10° SW 23:35:11 38° WSW 23:35:11 38° WSW
STARLINK-1261 4.1 23:33:21 10° SW 23:35:32 39° WSW 23:35:32 39° WSW
STARLINK-1325 4.1 23:33:43 10° SW 23:35:53 39° WSW 23:35:53 39° WSW
STARLINK-1333 4.2 23:34:06 10° SW 23:36:14 38° WSW 23:36:14 38° WSW
STARLINK-1334 4.2 23:34:24 10° SW 23:36:32 38° WSW 23:36:32 38° WSW
STARLINK-1326 4.2 23:34:45 10° SW 23:36:52 38° WSW 23:36:52 38° WSW
STARLINK-1323 4.2 23:35:04 10° SW 23:37:10 37° WSW 23:37:10 37° WSW
STARLINK-1349 4.2 23:35:25 10° SW 23:37:31 37° WSW 23:37:31 37° WSW
STARLINK-1338 3.7 23:34:57 10° SW 23:38:05 58° SW 23:38:05 58° SW
STARLINK-1336 4.3 23:35:46 10° SW 23:37:50 36° WSW 23:37:50 36° WSW
Cosmos 371 Rocket 3.3 23:34:12 10° SSW 23:39:04 81° WNW 23:43:53 10° NNE
STARLINK-1331 4.3 23:36:06 10° SW 23:38:10 36° WSW 23:38:10 36° WSW
STARLINK-1344 4.3 23:36:25 10° SW 23:38:28 35° WSW 23:38:28 35° WSW
STARLINK-1343 4.4 23:36:46 10° SW 23:38:47 35° WSW 23:38:47 35° WSW
STARLINK-1346 4.4 23:37:09 10° SW 23:39:04 33° WSW 23:39:04 33° WSW
STARLINK-1328 4.4 23:37:28 10° SW 23:39:28 34° WSW 23:39:28 34° WSW
STARLINK-1354 4.4 23:37:48 10° SW 23:39:47 34° WSW 23:39:47 34° WSW
STARLINK-1041 3.5 23:36:52 10° NW 23:41:00 84° SW 23:41:00 84° SW
STARLINK-1347 4.4 23:38:08 10° SW 23:40:07 33° WSW 23:40:07 33° WSW
STARLINK-1357 4.5 23:38:29 10° SW 23:40:27 33° WSW 23:40:27 33° WSW
Okean-O 3.1 23:43:11 47° NNE 23:43:11 47° NNE 23:46:33 10° N
YAOGAN 6 4.3 23:42:16 16° SSW 23:44:43 32° WSW 23:47:59 10° NW
STARLINK-1371 4.0 23:41:32 10° SW 23:44:32 52° SW 23:44:32 52° SW
Cosmos 1943 4.0 23:40:23 10° N 23:44:01 33° NE 23:44:01 33° NE
STARLINK-1038 3.7 23:41:51 10° NW 23:45:48 73° WSW 23:45:48 73° WSW
Cosmos 1816 Rocket 4.3 23:39:39 10° S 23:46:01 79° E 23:52:13 10° N
STARLINK-1341 4.2 23:44:52 10° SW 23:47:44 47° WSW 23:47:44 47° WSW
Cosmos 1269 Rocket 4.0 23:44:15 10° N 23:49:07 64° NE 23:49:07 64° NE
Cosmos 1603 3.8 23:44:11 10° N 23:49:26 57° ENE 23:49:26 57° ENE
STARLINK-1046 4.0 23:46:51 10° NW 23:50:36 62° W 23:50:36 62° W
STARLINK-1374 4.5 23:48:13 10° SW 23:50:56 42° WSW 23:50:56 42° WSW
BREEZE-M DEB (TANK) 4.3 23:49:19 10° SW 23:50:42 28° SSW 23:50:42 28° SSW
Lacrosse 5 rocket 4.2 23:55:23 10° SW 23:56:09 10° SSW 23:56:54 10° SSW
